Home > Time Zones > World Clock > Weather > Norway > Ski > Past weeks

Flag for Norway Weather past 2 weeks in Ski, Norway

Now
39 °F

Scattered clouds.


Feels Like: 29 °F
Forecast: 22 / 37 °F
Wind: 23 mph from Northwest

Location: Oslo / Fornebu

Current Time: Mar 4, 2015 at 5:09:04 PM

Latest Report: Mar 4, 2015 at 4:20 PM


Visibility: N/A

Pressure: 30.04 "Hg

Humidity: 70%

Dew point: 30 °F

Location of SkiLocation

Historic Weather in Ski — Graph

°F

Ski temperature yesterday

Maximum temperature yesterday: 41 °F (at 12:20 AM)
Minimum temperature yesterday: 37 °F (at 8:50 AM)
Average temperature yesterday: 40 °F

Past Weeks' High & Low Weather Summary

 TemperatureHumidityPressure
High48 °F (Feb 18, 8:50 AM)100% (Feb 17, 11:50 PM)30.04 "Hg (Feb 17, 11:50 PM)
Low34 °F (Feb 22, 6:50 AM)53% (Mar 2, 1:20 PM)28.44 "Hg (Mar 1, 12:20 PM)
Average42 °F79%29.23 "Hg
* Reported Feb 17 3:20 PM — Mar 4 3:50 PM, Ski, Weather by CustomWeather, © 2015

Note: Actual official high and low records may vary slightly from our data, if they occured in-between our weather recording intervals... More about our weather records

Advertising

Ski weather history for previous 24 hours

 ConditionsComfort  
Time TempWeatherWind HumidityBarometerVisibility
3:50 PM
Wed, Mar 4
41 °FScattered clouds.24 mph66%30.04 "HgN/A
3:20 PM39 °FBroken clouds.21 mph70%30.01 "HgN/A
2:50 PM39 °FPartly sunny.23 mph75%30.01 "HgN/A
2:20 PM37 °FPartly sunny.32 mph87%30.01 "HgN/A
1:50 PM37 °FSprinkles. Partly sunny.22 mph81%30.01 "HgN/A
1:20 PM39 °FRain showers. Partly sunny.26 mph75%29.98 "HgN/A
12:50 PM41 °FPartly sunny.21 mph66%29.95 "HgN/A
12:20 PM39 °FLight rain. Broken clouds.28 mph70%29.95 "HgN/A
11:50 AM43 °FPassing clouds.21 mph61%29.92 "HgN/A
11:20 AM43 °FBroken clouds.22 mph66%29.89 "HgN/A
10:50 AM41 °FPartly sunny.22 mph76%29.89 "HgN/A
10:20 AM41 °FQuite cool.20 mph70%29.86 "HgN/A
9:50 AM41 °FPassing clouds.15 mph76%29.83 "HgN/A
9:20 AM39 °FPassing clouds.15 mph81%29.83 "HgN/A
8:50 AM39 °FBroken clouds.16 mph81%29.80 "HgN/A
8:20 AM39 °FSprinkles. Partly sunny.9 mph81%29.80 "HgN/A
7:50 AM41 °FLight rain. Partly sunny.20 mph70%29.77 "Hg4 mi
7:20 AM41 °FPartly sunny.7 mph70%29.74 "HgN/A
6:50 AM41 °FPartly cloudy.15 mph70%29.71 "HgN/A
6:20 AM41 °FPartly cloudy.7 mph66%29.71 "HgN/A
5:50 AM41 °FPassing clouds.6 mph61%29.68 "HgN/A
5:20 AM41 °FQuite cool.6 mph61%29.68 "HgN/A
4:50 AM41 °FPassing clouds.6 mph61%29.65 "HgN/A
4:20 AM41 °FPassing clouds.6 mph57%29.65 "HgN/A
3:50 AM41 °FPassing clouds.8 mph57%29.62 "HgN/A
3:20 AM41 °FPassing clouds.7 mph57%29.59 "HgN/A
2:50 AM41 °FQuite cool.8 mph61%29.59 "HgN/A
2:20 AM41 °FQuite cool.7 mph61%29.59 "HgN/A
1:50 AM39 °FPassing clouds.6 mph65%29.56 "HgN/A
1:20 AM39 °FPassing clouds.10 mph65%29.56 "HgN/A
12:50 AM39 °FPassing clouds.13 mph65%29.56 "HgN/A
12:20 AM41 °FPassing clouds.15 mph66%29.53 "HgN/A
11:50 PM
Tue, Mar 3
41 °FPassing clouds.14 mph57%29.53 "HgN/A
11:20 PM41 °FPassing clouds.15 mph57%29.50 "HgN/A
10:50 PM41 °FPassing clouds.13 mph61%29.50 "HgN/A
10:20 PM41 °FPassing clouds.15 mph61%29.50 "HgN/A
9:50 PM41 °FPassing clouds.16 mph66%29.50 "HgN/A
9:20 PM41 °FPassing clouds.18 mph57%29.47 "HgN/A
8:20 PM39 °FPartly cloudy.16 mph75%29.47 "HgN/A
7:50 PM39 °FPartly cloudy.20 mph70%29.47 "HgN/A
7:20 PM39 °FPassing clouds.17 mph70%29.47 "HgN/A
6:50 PM39 °FPassing clouds.18 mph70%29.45 "HgN/A
6:20 PM39 °FPassing clouds.21 mph75%29.45 "HgN/A
5:50 PM39 °FPassing clouds.24 mph75%29.45 "HgN/A
5:20 PM41 °FPassing clouds.24 mph70%29.45 "HgN/A
Weather by CustomWeather, © 2015

See weather overviewHow to use our weather pages